Weather History for KABR - August, 2014

Change the Weather History Date:

Sunday, August 24, 2014

  Actual Average Record
Temperature  
Mean Temperature 65 °F 68 °F  
Max Temperature 76 °F 81 °F 103 °F (1929)
Min Temperature 54 °F 55 °F 38 °F (1934)
Degree Days  
Heating Degree Days 0 2  
Month to date heating degree days 3 22  
Since 1 June heating degree days 123 112  
Since 1 July heating degree days 40 36  
Cooling Degree Days 0 4  
Month to date cooling degree days 96 136  
Year to date cooling degree days 298 459  
Since 1 June cooling degree days 256 436  
Growing Degree Days 16 (Base 50)    
Moisture  
Dew Point 60 °F    
Average Humidity 72    
Maximum Humidity 100    
Minimum Humidity 43    
Precipitation  
Precipitation 0.01 in 0.08 in 1.03 in (1960)
Month to date precipitation 4.93 1.88  
Year to date precipitation 14.37 15.74  
Sea Level Pressure  
Sea Level Pressure 29.74 in    
Wind  
Wind Speed 10 mph (SW)    
Max Wind Speed 21 mph    
Max Gust Speed 28 mph    
Visibility 9 miles    
Events Rain , Thunderstorm    
T = Trace of Precipitation, MM = Missing Value Source: NWS Daily Summary

Daily Weather History Graph

Daily Weather History Graph

Search for Another Location

Airport or City:

Trip Planner

Search our weather history database for the weather conditions in past years. The results will help you decide how hot, cold, wet, or windy it might be!

Date:

Astronomy

Aug. 24, 2014 Rise Set
Actual Time 6:45 AM CDT 8:25 PM CDT
Civil Twilight 6:14 AM CDT 8:56 PM CDT
Nautical Twilight 5:35 AM CDT 9:34 PM CDT
Astronomical Twilight 4:54 AM CDT 10:15 PM CDT
Moon 5:57 AM CDT (8/24) 7:43 PM CDT (8/24)
Length of Visible Light 14h 42m
Length of Day
13h 40m
Waning Crescent, 1% of the Moon is Illuminated
Aug 24
Waning Crescent
Aug 25
New
Sep 2
First Quarter
Sep 8
Full
Sep 15
Last Quarter

Hourly Weather History & Observations

Time (CDT) Temp. Dew Point Humidity Pressure Visibility Wind Dir Wind Speed Gust Speed Precip Events Conditions
12:12 AM 69.1 °F 66.9 °F 93% 29.71 in 10.0 mi South 15.0 mph 26.5 mph 0.04 in Rain Light Rain
12:14 AM 68.0 °F 66.9 °F 96% 29.71 in 10.0 mi South 16.1 mph 26.5 mph 0.04 in Rain , Thunderstorm Light Rain
12:33 AM 66.9 °F 66.9 °F 100% 29.71 in 10.0 mi South 11.5 mph - 0.06 in Rain , Thunderstorm Light Thunderstorms and Rain
12:48 AM 66.2 °F 66.2 °F 100% 29.70 in 3.0 mi SE 8.1 mph - 0.08 in Rain , Thunderstorm Light Rain
12:53 AM 66.9 °F 66.9 °F 100% 29.68 in 3.0 mi SE 6.9 mph - 0.10 in Rain , Thunderstorm Rain
1:22 AM 66.9 °F 66.9 °F 100% 29.70 in 10.0 mi East 4.6 mph - 0.02 in Rain Light Rain
1:53 AM 66.0 °F 66.0 °F 100% 29.66 in 10.0 mi SE 3.5 mph - 0.02 in   Mostly Cloudy
2:53 AM 66.0 °F 66.0 °F 100% 29.67 in 10.0 mi SSE 9.2 mph - N/A   Overcast
3:53 AM 64.9 °F 64.9 °F 100% 29.67 in 10.0 mi SSE 10.4 mph - N/A   Clear
4:53 AM 64.0 °F 64.0 °F 100% 29.67 in 10.0 mi SSE 8.1 mph - N/A   Partly Cloudy
5:53 AM 64.0 °F 64.0 °F 100% 29.66 in 10.0 mi SSE 10.4 mph - N/A   Clear
6:53 AM 63.0 °F 63.0 °F 100% 29.67 in 10.0 mi South 6.9 mph - N/A   Clear
7:53 AM 64.0 °F 64.0 °F 100% 29.69 in 10.0 mi SSW 8.1 mph - N/A   Clear
8:53 AM 66.0 °F 64.9 °F 96% 29.70 in 10.0 mi SW 10.4 mph - N/A   Mostly Cloudy
9:28 AM 68.0 °F 66.0 °F 93% 29.72 in 9.0 mi WSW 12.7 mph - N/A   Mostly Cloudy
9:36 AM 68.0 °F 66.0 °F 93% 29.73 in 5.0 mi WSW 12.7 mph - N/A   Mostly Cloudy
9:53 AM 68.0 °F 64.9 °F 90% 29.72 in 5.0 mi West 11.5 mph 21.9 mph N/A   Overcast
10:24 AM 68.0 °F 57.9 °F 70% 29.75 in 10.0 mi WSW 19.6 mph 24.2 mph N/A   Scattered Clouds
10:53 AM 69.1 °F 59.0 °F 70% 29.74 in 10.0 mi WSW 11.5 mph - N/A   Clear
11:53 AM 70.0 °F 57.0 °F 63% 29.76 in 10.0 mi WSW 13.8 mph 21.9 mph N/A   Clear
12:53 PM 72.0 °F 55.0 °F 55% 29.77 in 10.0 mi WSW 19.6 mph 26.5 mph N/A   Clear
1:53 PM 73.9 °F 55.0 °F 52% 29.77 in 10.0 mi WSW 15.0 mph - N/A   Clear
2:53 PM 73.9 °F 53.1 °F 48% 29.78 in 10.0 mi WSW 15.0 mph 23.0 mph N/A   Clear
3:53 PM 75.0 °F 53.1 °F 46% 29.78 in 10.0 mi SW 17.3 mph 25.3 mph N/A   Clear
4:53 PM 75.9 °F 52.0 °F 43% 29.78 in 10.0 mi WSW 13.8 mph - N/A   Clear
5:53 PM 75.0 °F 51.1 °F 43% 29.80 in 10.0 mi WSW 17.3 mph 24.2 mph N/A   Clear
6:53 PM 73.0 °F 51.1 °F 46% 29.80 in 10.0 mi West 8.1 mph - N/A   Clear
7:29 PM 72.0 °F 52.0 °F 49% 29.81 in 10.0 mi West 5.8 mph - N/A   Partly Cloudy
7:53 PM 70.0 °F 54.0 °F 57% 29.80 in 10.0 mi West 3.5 mph - N/A   Clear
8:53 PM 62.6 °F 53.6 °F 72% 29.82 in 10.0 mi NW 5.8 mph - N/A   Clear
9:53 PM 57.2 °F 55.4 °F 94% 29.85 in 10.0 mi WSW 4.6 mph - N/A   Clear
10:53 PM 57.0 °F 53.1 °F 87% 29.87 in 10.0 mi SW 4.6 mph - N/A   Clear